Location: Altleiningen
(49.5078°N, 8.0741°E)
Time: 04:45:03
(UTC+00:00)

Ariane Rocket - Pass Details

Date: 14 June 2025
Orbit: 754 x 765 km, 98.5° (Epoch: 12 July)

Event Time Altitude Azimuth Distance (km) Brightness Sun altitude
Exits shadow 21:09:58 11° 177° (S) 2,248 4.9 -11.0°
Maximum altitude 21:14:52 64° 258° (WSW) 852 3.3 -11.4°
Drops below altitude 10° 21:19:56 10° 340° (NNW) 2,314 7.0 -11.8°
Sets 21:22:16 0° 344° (NNW) 3,244 8.0 -12.0°
